When you browse on this site, cookies collect data to enhance your experience and personalize the content and advertising you see.
Visit our Privacy Policy to learn more. By continuing to use the site, you agree to this use of cookies and data.
  • In Latvia
  • List of Countries
  • For 7 days
  • Water Temperature
  • Satellite Maps
  • Weather Map
  • Weather Widgets
  • user-avatar
    Login

    Hourly Weather Sozopol

    Today, 24 March, Sunday

    Time Temperature Precipitation Wind Pressure Humidity
    00:00 +7°C° 0 mm 2 mps 764 mmHg 54%
    01:00 +7°C° 0 mm 2 mps 764 mmHg 55%
    02:00 +7°C° 0 mm 1 mps 764 mmHg 56%
    03:00 +7°C° 0 mm 1 mps 764 mmHg 57%
    04:00 +6°C° 0 mm 1 mps 764 mmHg 58%
    05:00 +5°C° 0 mm 2 mps 763 mmHg 59%
    06:00 +6°C° 0 mm 2 mps 763 mmHg 57%
    07:00 +7°C° 0 mm 2 mps 764 mmHg 55%
    08:00 +8°C° 0 mm 2 mps 764 mmHg 53%
    09:00 +9°C° 0 mm 3 mps 764 mmHg 48%
    10:00 +10°C° 0 mm 3 mps 764 mmHg 44%
    11:00 +11°C° 0 mm 4 mps 764 mmHg 40%
    12:00 +11°C° 0 mm 4 mps 763 mmHg 40%
    13:00 +12°C° 0 mm 4 mps 763 mmHg 39%
    14:00 +12°C° 0 mm 4 mps 763 mmHg 39%
    15:00 +11°C° 0 mm 4 mps 762 mmHg 42%
    16:00 +11°C° 0 mm 4 mps 762 mmHg 46%
    17:00 +10°C° 0 mm 4 mps 762 mmHg 49%
    18:00 +9°C° 0 mm 3 mps 762 mmHg 54%
    19:00 +8°C° 0 mm 3 mps 762 mmHg 58%
    20:00 +7°C° 0 mm 2 mps 762 mmHg 62%
    21:00 +7°C° 0 mm 2 mps 762 mmHg 63%
    22:00 +6°C° 0 mm 2 mps 762 mmHg 64%
    23:00 +7°C° 0 mm 1 mps 762 mmHg 65%

    Tomorrow, 25 March, Monday

    Time Temperature Precipitation Wind Pressure Humidity
    00:00 +7°C° 0 mm 1 mps 762 mmHg 66%
    01:00 +7°C° 0 mm 1 mps 761 mmHg 67%
    02:00 +6°C° 0 mm 1 mps 761 mmHg 68%
    03:00 +6°C° 0 mm 1 mps 761 mmHg 68%
    04:00 +5°C° 0 mm 2 mps 760 mmHg 68%
    05:00 +5°C° 0 mm 2 mps 760 mmHg 67%
    06:00 +6°C° 0 mm 2 mps 760 mmHg 63%
    07:00 +7°C° 0 mm 2 mps 759 mmHg 58%
    08:00 +8°C° 0 mm 2 mps 759 mmHg 54%
    09:00 +10°C° 0 mm 2 mps 759 mmHg 48%
    10:00 +14°C° 0 mm 2 mps 759 mmHg 42%
    11:00 +16°C° 0 mm 2 mps 758 mmHg 36%
    12:00 +16°C° 0 mm 3 mps 758 mmHg 36%
    13:00 +17°C° 0 mm 4 mps 757 mmHg 37%
    14:00 +18°C° 0 mm 4 mps 757 mmHg 37%
    15:00 +16°C° 0 mm 5 mps 756 mmHg 41%
    16:00 +15°C° 0 mm 5 mps 756 mmHg 44%
    17:00 +15°C° 0 mm 5 mps 756 mmHg 48%
    18:00 +13°C° 0 mm 4 mps 756 mmHg 54%
    19:00 +12°C° 0 mm 4 mps 756 mmHg 60%
    20:00 +10°C° 0 mm 4 mps 756 mmHg 67%
    21:00 +10°C° 0 mm 3 mps 756 mmHg 69%
    22:00 +9°C° 0 mm 3 mps 756 mmHg 70%
    23:00 +9°C° 0 mm 3 mps 755 mmHg 72%

    Day after tomorrow, 26 March, Tuesday

    Time Temperature Precipitation Wind Pressure Humidity
    00:00 +9°C° 0 mm 3 mps 755 mmHg 73%
    01:00 +8°C° 0 mm 2 mps 755 mmHg 74%
    02:00 +8°C° 0 mm 2 mps 755 mmHg 74%
    03:00 +8°C° 0 mm 2 mps 755 mmHg 74%
    04:00 +8°C° 0 mm 2 mps 755 mmHg 74%
    05:00 +8°C° 0 mm 2 mps 755 mmHg 74%
    06:00 +10°C° 0 mm 1 mps 755 mmHg 69%
    07:00 +11°C° 0 mm 1 mps 755 mmHg 65%
    08:00 +12°C° 0 mm 1 mps 756 mmHg 60%
    09:00 +14°C° 0 mm 1 mps 756 mmHg 54%
    10:00 +15°C° 0 mm 1 mps 756 mmHg 49%
    11:00 +18°C° 0 mm 1 mps 756 mmHg 43%
    12:00 +17°C° 0 mm 2 mps 756 mmHg 43%
    13:00 +18°C° 0 mm 2 mps 756 mmHg 43%
    14:00 +18°C° 0 mm 3 mps 756 mmHg 43%
    15:00 +17°C° 0 mm 3 mps 756 mmHg 47%
    16:00 +15°C° 0 mm 4 mps 756 mmHg 52%
    17:00 +13°C° 0 mm 4 mps 757 mmHg 56%
    18:00 +12°C° 0 mm 4 mps 757 mmHg 62%
    19:00 +10°C° 0 mm 5 mps 758 mmHg 67%
    20:00 +9°C° 0 mm 5 mps 759 mmHg 72%
    21:00 +9°C° 0 mm 5 mps 760 mmHg 75%
    22:00 +9°C° 0 mm 5 mps 760 mmHg 79%
    23:00 +8°C° 0 mm 5 mps 760 mmHg 82%

    27 March, Wednesday

    Time Temperature Precipitation Wind Pressure Humidity
    00:00 +8°C° 0 mm 5 mps 761 mmHg 81%
    01:00 +8°C° 0 mm 5 mps 761 mmHg 80%
    02:00 +8°C° 0 mm 5 mps 761 mmHg 79%
    03:00 +8°C° 0 mm 5 mps 761 mmHg 78%
    04:00 +8°C° 0 mm 5 mps 762 mmHg 78%
    05:00 +8°C° 0 mm 5 mps 762 mmHg 77%
    06:00 +8°C° 0 mm 6 mps 762 mmHg 74%
    07:00 +8°C° 0 mm 7 mps 763 mmHg 70%
    08:00 +8°C° 0 mm 7 mps 764 mmHg 67%
    09:00 +9°C° 0 mm 7 mps 764 mmHg 66%
    10:00 +9°C° 0 mm 7 mps 765 mmHg 64%
    11:00 +9°C° 0 mm 7 mps 765 mmHg 63%
    12:00 +10°C° 0 mm 7 mps 765 mmHg 60%
    13:00 +10°C° 0 mm 7 mps 765 mmHg 58%
    14:00 +10°C° 0 mm 7 mps 765 mmHg 55%
    15:00 +10°C° 0 mm 6 mps 765 mmHg 55%
    16:00 +9°C° 0 mm 6 mps 765 mmHg 55%
    17:00 +9°C° 0 mm 6 mps 765 mmHg 54%
    18:00 +8°C° 0 mm 5 mps 766 mmHg 56%
    19:00 +7°C° 0 mm 5 mps 766 mmHg 59%
    20:00 +6°C° 0 mm 5 mps 766 mmHg 61%
    21:00 +6°C° 0 mm 5 mps 767 mmHg 61%
    22:00 +6°C° 0 mm 4 mps 767 mmHg 61%
    23:00 +6°C° 0 mm 4 mps 767 mmHg 61%

    28 March, Thursday

    Time Temperature Precipitation Wind Pressure Humidity
    00:00 +6°C° 0 mm 4 mps 767 mmHg 63%
    01:00 +6°C° 0 mm 5 mps 767 mmHg 65%
    02:00 +6°C° 0 mm 5 mps 767 mmHg 67%
    03:00 +6°C° 0 mm 5 mps 767 mmHg 68%
    04:00 +5°C° 0 mm 6 mps 767 mmHg 68%
    05:00 +4°C° 0 mm 6 mps 767 mmHg 68%
    06:00 +5°C° 0 mm 6 mps 767 mmHg 66%
    07:00 +6°C° 0 mm 7 mps 767 mmHg 63%
    08:00 +6°C° 0 mm 7 mps 767 mmHg 61%
    09:00 +7°C° 0 mm 8 mps 767 mmHg 55%
    10:00 +7°C° 0 mm 8 mps 767 mmHg 50%
    11:00 +8°C° 0 mm 9 mps 767 mmHg 44%
    12:00 +8°C° 0 mm 9 mps 767 mmHg 49%
    13:00 +8°C° 0 mm 9 mps 767 mmHg 53%
    14:00 +8°C° 0 mm 9 mps 767 mmHg 58%
    15:00 +7°C° 0.1 mm 9 mps 767 mmHg 60%
    16:00 +6°C° 0.1 mm 9 mps 766 mmHg 63%
    17:00 +6°C° 0.1 mm 9 mps 766 mmHg 66%
    18:00 +5°C° 0 mm 8 mps 767 mmHg 66%
    19:00 +5°C° 0 mm 8 mps 767 mmHg 66%
    20:00 +5°C° 0 mm 8 mps 767 mmHg 66%
    21:00 +4°C° 0 mm 8 mps 767 mmHg 65%
    22:00 +4°C° 0 mm 8 mps 767 mmHg 64%
    23:00 +4°C° 0 mm 8 mps 767 mmHg 64%

    29 March, Friday

    Time Temperature Precipitation Wind Pressure Humidity
    00:00 +4°C° 0 mm 8 mps 767 mmHg 65%
    01:00 +3°C° 0 mm 7 mps 767 mmHg 66%
    02:00 +3°C° 0 mm 7 mps 767 mmHg 67%
    03:00 +3°C° 0 mm 7 mps 767 mmHg 67%
    04:00 +3°C° 0 mm 7 mps 767 mmHg 68%
    05:00 +3°C° 0 mm 7 mps 767 mmHg 68%
    06:00 +4°C° 0 mm 8 mps 767 mmHg 66%
    07:00 +4°C° 0 mm 8 mps 767 mmHg 64%
    08:00 +5°C° 0 mm 8 mps 767 mmHg 62%
    09:00 +6°C° 0 mm 9 mps 767 mmHg 59%
    10:00 +6°C° 0 mm 9 mps 767 mmHg 56%
    11:00 +7°C° 0 mm 9 mps 767 mmHg 54%
    12:00 +7°C° 0 mm 9 mps 767 mmHg 52%
    13:00 +8°C° 0 mm 9 mps 767 mmHg 50%
    14:00 +8°C° 0 mm 9 mps 766 mmHg 48%
    15:00 +8°C° 0 mm 9 mps 766 mmHg 50%
    16:00 +7°C° 0 mm 9 mps 766 mmHg 51%
    17:00 +7°C° 0 mm 9 mps 766 mmHg 53%
    18:00 +6°C° 0 mm 8 mps 766 mmHg 55%
    19:00 +6°C° 0 mm 7 mps 766 mmHg 57%
    20:00 +5°C° 0 mm 6 mps 766 mmHg 60%
    21:00 +5°C° 0 mm 6 mps 766 mmHg 61%
    22:00 +6°C° 0 mm 5 mps 766 mmHg 63%
    23:00 +5°C° 0 mm 5 mps 766 mmHg 64%
    Show more